Cody, WY

11:31 PM MST on December 13, 2017 (GMT -0700)
Yellowstone Regional

Weather History for KCOD - April, 2014

Change the Weather History Date:

Friday, April 4, 2014

  Actual Average Record
Temperature  
Mean Temperature 39 °F -  
Max Temperature 48 °F 53 °F 72 °F (1944)
Min Temperature 30 °F 28 °F 3 °F (1936)
Degree Days  
Heating Degree Days 26    
Moisture  
Dew Point 19 °F    
Average Humidity 45    
Maximum Humidity 80    
Minimum Humidity 30    
Precipitation  
Precipitation 0.00 in - - ()
Sea Level Pressure  
Sea Level Pressure 29.88 in    
Wind  
Wind Speed 12 mph (WSW)    
Max Wind Speed 22 mph    
Max Gust Speed 31 mph    
Visibility 10 miles    
Events      
Averages and records for this station are not official NWS values.
T = Trace of Precipitation, MM = Missing Value Source: NWS Daily Summary

Daily Weather History Graph

Daily Weather History Graph

Search for Another Location

Airport or City:

Trip Planner

Search our weather history database for the weather conditions in past years. The results will help you decide how hot, cold, wet, or windy it might be!

Date:

Astronomy

Apr. 04, 2014 Rise Set
Actual Time 6:51 AM MDT 7:47 PM MDT
Civil Twilight 6:21 AM MDT 8:16 PM MDT
Nautical Twilight 5:46 AM MDT 8:52 PM MDT
Astronomical Twilight 5:09 AM MDT 9:29 PM MDT
Moon 10:02 AM MDT (4/4) 12:16 AM MDT (4/4)
Length of Visible Light 13h 55m
Length of Day
12h 55m
Waxing Crescent, 26% of the Moon is Illuminated
Apr 4
Waxing Crescent
Apr 7
First Quarter
Apr 15
Full
Apr 22
Last Quarter
Apr 29
New

Hourly Weather History & Observations

Time (MDT) Temp. Windchill Dew Point Humidity Pressure Visibility Wind Dir Wind Speed Gust Speed Precip Events Conditions
12:15 AM 30.2 °F 20.8 °F 24.8 °F 80% 29.99 in 10.0 mi SW 11.5 mph - N/A   Clear
12:35 AM 32.0 °F 27.5 °F 23.0 °F 69% 30.00 in 10.0 mi WSW 4.6 mph - N/A   Clear
12:55 AM 33.8 °F 24.8 °F 21.2 °F 60% 29.99 in 10.0 mi SW 12.7 mph - N/A   Clear
1:15 AM 33.8 °F 25.8 °F 21.2 °F 60% 29.99 in 10.0 mi SW 10.4 mph - N/A   Clear
1:35 AM 33.8 °F 27.0 °F 21.2 °F 60% 29.99 in 10.0 mi WSW 8.1 mph - N/A   Clear
1:55 AM 33.8 °F 27.0 °F 21.2 °F 60% 29.99 in 10.0 mi WSW 8.1 mph - N/A   Clear
2:15 AM 35.6 °F 27.5 °F 19.4 °F 52% 29.98 in 10.0 mi SW 11.5 mph - N/A   Clear
2:35 AM 35.6 °F 28.6 °F 19.4 °F 52% 29.98 in 10.0 mi WSW 9.2 mph 17.3 mph N/A   Clear
2:55 AM 35.6 °F 32.8 °F 19.4 °F 52% 29.97 in 10.0 mi WSW 3.5 mph - N/A   Clear
3:15 AM 33.8 °F 27.7 °F 19.4 °F 56% 29.97 in 10.0 mi SW 6.9 mph - N/A   Clear
3:35 AM 33.8 °F 26.4 °F 19.4 °F 56% 29.97 in 10.0 mi SW 9.2 mph - N/A   Clear
3:55 AM 32.0 °F 25.6 °F 19.4 °F 60% 29.96 in 10.0 mi WSW 6.9 mph - N/A   Clear
4:15 AM 30.2 °F 19.8 °F 19.4 °F 64% 29.95 in 10.0 mi SW 13.8 mph - N/A   Clear
4:35 AM 32.0 °F 24.8 °F 19.4 °F 60% 29.95 in 10.0 mi SW 8.1 mph - N/A   Clear
4:55 AM 30.2 °F 18.1 °F 17.6 °F 60% 29.95 in 10.0 mi SW 18.4 mph - N/A   Clear
5:15 AM 32.0 °F 21.6 °F 19.4 °F 60% 29.94 in 10.0 mi SW 15.0 mph - N/A   Clear
5:35 AM 30.2 °F 19.8 °F 17.6 °F 60% 29.94 in 10.0 mi SSW 13.8 mph - N/A   Clear
5:55 AM 30.2 °F 17.4 °F 17.6 °F 60% 29.93 in 10.0 mi SSW 20.7 mph - N/A   Clear
6:15 AM 30.2 °F 18.5 °F 17.6 °F 60% 29.94 in 10.0 mi SW 17.3 mph - N/A   Clear
6:35 AM 30.2 °F 17.8 °F 17.6 °F 60% 29.94 in 10.0 mi SSW 19.6 mph - N/A   Clear
6:55 AM 32.0 °F 19.5 °F 15.8 °F 51% 29.94 in 10.0 mi SSW 21.9 mph - N/A   Clear
7:15 AM 32.0 °F 20.1 °F 15.8 °F 51% 29.93 in 10.0 mi SSW 19.6 mph 25.3 mph N/A   Clear
7:35 AM 32.0 °F 21.2 °F 17.6 °F 55% 29.94 in 10.0 mi SSW 16.1 mph - N/A   Clear
7:55 AM 33.8 °F 24.8 °F 17.6 °F 52% 29.94 in 10.0 mi SSW 12.7 mph - N/A   Clear
8:15 AM 33.8 °F 23.2 °F 17.6 °F 52% 29.94 in 10.0 mi SSW 17.3 mph - N/A   Clear
8:35 AM 35.6 °F 25.2 °F 17.6 °F 48% 29.93 in 10.0 mi SW 18.4 mph 23.0 mph N/A   Clear
8:55 AM 35.6 °F 25.5 °F 17.6 °F 48% 29.93 in 10.0 mi SW 17.3 mph - N/A   Clear
9:15 AM 37.4 °F 28.9 °F 17.6 °F 45% 29.92 in 10.0 mi WSW 13.8 mph 17.3 mph N/A   Clear
9:35 AM 39.2 °F 30.2 °F 15.8 °F 39% 29.92 in 10.0 mi SW 17.3 mph 23.0 mph N/A   Clear
9:55 AM 39.2 °F 32.0 °F 15.8 °F 39% 29.92 in 10.0 mi WSW 11.5 mph 21.9 mph N/A   Clear
10:15 AM 39.2 °F 31.6 °F 17.6 °F 42% 29.92 in 10.0 mi WSW 12.7 mph 17.3 mph N/A   Clear
10:35 AM 41.0 °F 35.8 °F 17.6 °F 39% 29.92 in 10.0 mi WSW 8.1 mph 17.3 mph N/A   Clear
10:55 AM 42.8 °F 38.6 °F 17.6 °F 36% 29.91 in 10.0 mi West 6.9 mph - N/A   Clear
11:15 AM 42.8 °F 35.8 °F 17.6 °F 36% 29.90 in 10.0 mi SW 13.8 mph 19.6 mph N/A   Clear
11:35 AM 44.6 °F 38.1 °F 17.6 °F 34% 29.90 in 10.0 mi WSW 13.8 mph 20.7 mph N/A   Clear
11:55 AM 44.6 °F 37.4 °F 17.6 °F 34% 29.89 in 10.0 mi WSW 16.1 mph 25.3 mph N/A   Clear
12:15 PM 44.6 °F 39.2 °F 19.4 °F 37% 29.88 in 10.0 mi WSW 10.4 mph 20.7 mph N/A   Clear
12:55 PM 44.6 °F 38.1 °F 19.4 °F 37% 29.86 in 10.0 mi WSW 13.8 mph 21.9 mph N/A   Clear
1:15 PM 46.4 °F 40.1 °F 21.2 °F 37% 29.85 in 10.0 mi SW 15.0 mph 19.6 mph N/A   Clear
1:35 PM 46.4 °F 41.5 °F 19.4 °F 34% 29.85 in 10.0 mi WSW 10.4 mph 18.4 mph N/A   Clear
1:55 PM 46.4 °F 41.1 °F 19.4 °F 34% 29.84 in 10.0 mi WSW 11.5 mph - N/A   Clear
2:15 PM 48.2 °F - 21.2 °F 34% 29.83 in 10.0 mi West 10.4 mph 16.1 mph N/A   Clear
2:35 PM 48.2 °F - 19.4 °F 32% 29.83 in 10.0 mi West 15.0 mph 19.6 mph N/A   Clear
2:55 PM 48.2 °F - 17.6 °F 30% 29.82 in 10.0 mi WSW 13.8 mph 20.7 mph N/A   Clear
3:15 PM 48.2 °F - 17.6 °F 30% 29.82 in 10.0 mi West 9.2 mph 19.6 mph N/A   Scattered Clouds
3:35 PM 48.2 °F - 17.6 °F 30% 29.82 in 10.0 mi West 13.8 mph 20.7 mph N/A   Scattered Clouds
3:55 PM 48.2 °F - 19.4 °F 32% 29.81 in 10.0 mi West 12.7 mph 20.7 mph N/A   Clear
4:15 PM 48.2 °F - 17.6 °F 30% 29.81 in 10.0 mi West 12.7 mph 24.2 mph N/A   Clear
4:35 PM 48.2 °F - 19.4 °F 32% 29.81 in 10.0 mi West 12.7 mph 21.9 mph N/A   Clear
4:55 PM 48.2 °F - 19.4 °F 32% 29.81 in 10.0 mi WNW 13.8 mph 18.4 mph N/A   Clear
5:15 PM 48.2 °F - 19.4 °F 32% 29.80 in 10.0 mi West 8.1 mph 18.4 mph N/A   Clear
5:35 PM 48.2 °F - 19.4 °F 32% 29.80 in 10.0 mi West 10.4 mph 17.3 mph N/A   Clear
5:55 PM 46.4 °F 41.1 °F 19.4 °F 34% 29.80 in 10.0 mi West 11.5 mph 17.3 mph N/A   Clear
6:15 PM 46.4 °F 42.9 °F 17.6 °F 32% 29.81 in 10.0 mi West 6.9 mph - N/A   Clear
6:35 PM 46.4 °F 42.4 °F 17.6 °F 32% 29.81 in 10.0 mi West 8.1 mph - N/A   Clear
6:55 PM 46.4 °F 44.3 °F 17.6 °F 32% 29.80 in 10.0 mi West 4.6 mph - N/A   Clear
7:15 PM 46.4 °F 42.4 °F 17.6 °F 32% 29.80 in 10.0 mi WSW 8.1 mph - N/A   Clear
7:35 PM 46.4 °F 40.4 °F 19.4 °F 34% 29.81 in 10.0 mi West 13.8 mph 19.6 mph N/A   Clear
7:55 PM 44.6 °F 38.4 °F 19.4 °F 37% 29.81 in 10.0 mi West 12.7 mph - N/A   Clear
8:15 PM 44.6 °F 38.4 °F 19.4 °F 37% 29.81 in 10.0 mi West 12.7 mph 21.9 mph N/A   Clear
8:35 PM 44.6 °F 38.1 °F 19.4 °F 37% 29.82 in 10.0 mi WSW 13.8 mph 19.6 mph N/A   Clear
8:55 PM 42.8 °F 36.6 °F 19.4 °F 39% 29.82 in 10.0 mi West 11.5 mph 20.7 mph N/A   Clear
9:15 PM 44.6 °F 38.1 °F 19.4 °F 37% 29.82 in 10.0 mi WSW 13.8 mph 24.2 mph N/A   Clear
9:35 PM 42.8 °F 38.6 °F 21.2 °F 42% 29.82 in 10.0 mi West 6.9 mph - N/A   Clear
9:55 PM 42.8 °F 40.1 °F 19.4 °F 39% 29.82 in 10.0 mi WNW 4.6 mph - N/A   Clear
10:15 PM 42.8 °F 39.3 °F 21.2 °F 42% 29.83 in 10.0 mi WSW 5.8 mph - N/A   Clear
10:35 PM 42.8 °F 41.1 °F 21.2 °F 42% 29.83 in 10.0 mi South 3.5 mph - N/A   Clear
10:55 PM 39.2 °F 31.2 °F 23.0 °F 52% 29.82 in 10.0 mi SSW 13.8 mph 21.9 mph N/A   Clear
11:15 PM 42.8 °F 36.2 °F 21.2 °F 42% 29.82 in 10.0 mi SW 12.7 mph 31.1 mph N/A   Clear
11:35 PM 42.8 °F 35.1 °F 21.2 °F 42% 29.82 in 10.0 mi SW 16.1 mph 19.6 mph N/A   Clear
11:55 PM 39.2 °F 31.2 °F 26.6 °F 61% 29.83 in 10.0 mi West 13.8 mph 28.8 mph N/A   Clear